Location: Monrovia
(34.7865°N, 86.7139°W)
Time: 21:57:35
(UTC+00:00)

Cosmos 1782 Rocket - Pass Details

Date: 14 July 2020
Orbit: 606 x 633 km, 82.5° (Epoch: 08 August)

Event Time Altitude Azimuth Distance (km) Brightness Sun altitude
Exits shadow 09:21:45 22° 203° (SSW) 1,387 4.8 -14.9°
Maximum altitude 09:24:32 61° 278° (W) 714 3.6 -14.5°
Drops below altitude 10° 09:28:56 10° 359° (N) 2,001 6.7 -13.8°
Sets 09:31:12 0° 3° (N) 2,907 7.7 -13.5°
